| time (UTC) | temp F | wind direction | speed MPH | gust MPH | rain 1hr in | rain 24hr in | rain mn in | humidity % | barometer mb |
| 20260507031551 | 33 | 0 | 0.0 | 1.0 | 0.00 | 0.83 | 0.83 | 79 | 1027.0 |
| 20260507030059 | 34 | 0 | 0.0 | 0.0 | 0.00 | 0.83 | 0.83 | 78 | 1026.9 |
| 20260507024613 | 34 | 0 | 0.0 | 0.0 | 0.00 | 0.83 | 0.83 | 76 | 1027.0 |
| 20260507023051 | 35 | 0 | 0.0 | 0.0 | 0.00 | 0.83 | 0.83 | 75 | 1026.8 |
| 20260507021552 | 36 | 0 | 0.0 | 3.0 | 0.00 | 0.83 | 0.83 | 75 | 1026.7 |
| 20260507020104 | 36 | 0 | 0.0 | 2.0 | 0.01 | 0.83 | 0.83 | 73 | 1026.7 |
| 20260507014605 | 37 | 148 | 0.0 | 1.0 | 0.01 | 0.83 | 0.83 | 72 | 1026.7 |
| 20260507013055 | 38 | 155 | 0.0 | 2.0 | 0.02 | 0.83 | 0.83 | 71 | 1026.7 |
| 20260507011548 | 39 | 148 | 0.0 | 2.0 | 0.02 | 0.82 | 0.82 | 70 | 1026.8 |
| 20260507010052 | 40 | 0 | 0.0 | 1.0 | 0.03 | 0.82 | 0.82 | 68 | 1026.9 |
| 20260507004552 | 41 | 0 | 0.0 | 0.0 | 0.06 | 0.82 | 0.82 | 66 | 1027.1 |
| 20260507003054 | 42 | 0 | 0.0 | 3.0 | 0.07 | 0.81 | 0.81 | 65 | 1027.1 |
| 20260507001601 | 43 | 0 | 1.0 | 4.0 | 0.09 | 0.80 | 0.80 | 65 | 1027.3 |
| 20260507000053 | 42 | 0 | 0.0 | 6.0 | 0.09 | 0.78 | 0.78 | 68 | 1027.4 |
| 20260506234556 | 41 | 0 | 0.0 | 2.0 | 0.10 | 0.76 | 0.76 | 69 | 1027.4 |
| 20260506233049 | 41 | 136 | 0.0 | 4.0 | 0.11 | 0.74 | 0.74 | 70 | 1027.3 |
| 20260506231556 | 40 | 0 | 0.0 | 11.0 | 0.12 | 0.71 | 0.71 | 68 | 1027.6 |
| 20260506230100 | 40 | 118 | 0.0 | 5.0 | 0.14 | 0.69 | 0.69 | 71 | 1027.5 |
| 20260506224552 | 39 | 132 | 0.0 | 4.0 | 0.15 | 0.67 | 0.66 | 71 | 1027.7 |
| 20260506223058 | 39 | 0 | 0.0 | 6.0 | 0.16 | 0.64 | 0.63 | 69 | 1027.8 |
| 20260506221554 | 41 | 0 | 0.0 | 3.0 | 0.17 | 0.60 | 0.58 | 71 | 1028.0 |
| 20260506220055 | 38 | 184 | 0.0 | 3.0 | 0.17 | 0.56 | 0.55 | 69 | 1028.2 |
| 20260506214549 | 38 | 0 | 0.0 | 3.0 | 0.17 | 0.55 | 0.51 | 69 | 1028.4 |
| 20260506213104 | 38 | 197 | 1.0 | 4.0 | 0.17 | 0.51 | 0.47 | 72 | 1028.4 |
| 20260506211604 | 37 | 129 | 0.0 | 3.0 | 0.17 | 0.45 | 0.41 | 75 | 1028.5 |
| 20260506210048 | 36 | 0 | 0.0 | 0.0 | 0.18 | 0.42 | 0.38 | 75 | 1028.6 |
| 20260506204556 | 36 | 0 | 0.0 | 0.0 | 0.20 | 0.40 | 0.34 | 75 | 1028.9 |
| 20260506203052 | 36 | 0 | 0.0 | 4.0 | 0.17 | 0.36 | 0.30 | 76 | 1029.0 |
| 20260506201559 | 36 | 0 | 0.0 | 3.0 | 0.13 | 0.30 | 0.24 | 77 | 1029.1 |
| 20260506200059 | 36 | 0 | 0.0 | 0.0 | 0.10 | 0.26 | 0.20 | 76 | 1029.2 |
| 20260506194614 | 36 | 0 | 0.0 | 1.0 | 0.04 | 0.21 | 0.14 | 78 | 1029.2 |
| 20260506193054 | 34 | 246 | 1.0 | 3.0 | 0.03 | 0.19 | 0.12 | 80 | 1029.4 |
| 20260506191551 | 36 | 0 | 0.0 | 4.0 | 0.03 | 0.18 | 0.11 | 81 | 1029.4 |
| 20260506190055 | 35 | 0 | 0.0 | 3.0 | 0.02 | 0.17 | 0.10 | 82 | 1029.6 |
| 20260506184603 | 34 | 62 | 0.0 | 3.0 | 0.03 | 0.18 | 0.10 | 84 | 1029.9 |
| 20260506183101 | 35 | 40 | 0.0 | 3.0 | 0.03 | 0.17 | 0.09 | 86 | 1030.1 |
| 20260506181552 | 34 | 0 | 0.0 | 5.0 | 0.02 | 0.16 | 0.08 | 87 | 1030.1 |
| 20260506180054 | 34 | 60 | 0.0 | 5.0 | 0.03 | 0.16 | 0.08 | 88 | 1030.0 |
| 20260506174555 | 33 | 0 | 0.0 | 5.0 | 0.03 | 0.15 | 0.07 | 89 | 1029.8 |
| 20260506173054 | 32 | 46 | 1.0 | 7.0 | 0.03 | 0.14 | 0.06 | 89 | 1029.9 |
| 20260506171554 | 32 | 46 | 2.0 | 5.0 | 0.03 | 0.14 | 0.06 | 89 | 1029.7 |
| 20260506170114 | 32 | 305 | 1.0 | 6.0 | 0.03 | 0.13 | 0.05 | 90 | 1029.5 |
| 20260506164556 | 32 | 317 | 1.0 | 7.0 | 0.02 | 0.12 | 0.04 | 90 | 1029.4 |
| 20260506163112 | 32 | 340 | 1.0 | 4.0 | 0.02 | 0.11 | 0.03 | 91 | 1029.1 |
| 20260506161556 | 33 | 20 | 0.0 | 3.0 | 0.02 | 0.11 | 0.03 | 91 | 1028.8 |
| 20260506160100 | 32 | 0 | 1.0 | 7.0 | 0.01 | 0.10 | 0.02 | 91 | 1028.9 |
| 20260506154551 | 32 | 198 | 1.0 | 5.0 | 0.01 | 0.12 | 0.02 | 91 | 1028.7 |
| 20260506153052 | 32 | 0 | 0.0 | 3.0 | 0.00 | 0.11 | 0.01 | 91 | 1028.8 |
| 20260506151549 | 32 | 0 | 0.0 | 4.0 | 0.01 | 0.11 | 0.01 | 91 | 1028.6 |
| 20260506150053 | 31 | 0 | 0.0 | 2.0 | 0.01 | 0.11 | 0.01 | 91 | 1028.4 |
| 20260506144603 | 31 | 0 | 0.0 | 2.0 | 0.01 | 0.12 | 0.01 | 91 | 1028.3 |
| 20260506143057 | 31 | 0 | 0.0 | 1.0 | 0.01 | 0.12 | 0.01 | 91 | 1028.3 |
| 20260506141553 | 31 | 0 | 0.0 | 2.0 | 0.00 | 0.11 | 0.00 | 91 | 1028.1 |
| 20260506140052 | 32 | 0 | 0.0 | 0.0 | 0.00 | 0.11 | 0.00 | 91 | 1028.0 |
| 20260506134550 | 31 | 0 | 0.0 | 0.0 | 0.00 | 0.12 | 0.00 | 91 | 1028.1 |
| 20260506133055 | 31 | 0 | 0.0 | 0.0 | 0.00 | 0.12 | 0.00 | 91 | 1027.9 |
| 20260506131551 | 31 | 0 | 0.0 | 0.0 | 0.00 | 0.12 | 0.00 | 91 | 1027.7 |
| 20260506130058 | 31 | 0 | 0.0 | 0.0 | 0.00 | 0.12 | 0.00 | 91 | 1027.2 |
| 20260506124549 | 31 | 0 | 0.0 | 0.0 | 0.00 | 0.14 | 0.00 | 91 | 1026.8 |
| 20260506123051 | 31 | 0 | 0.0 | 0.0 | 0.00 | 0.14 | 0.00 | 91 | 1026.4 |
| 20260506121556 | 30 | 0 | 0.0 | 0.0 | 0.00 | 0.14 | 0.00 | 91 | 1026.7 |
| 20260506120056 | 30 | 0 | 0.0 | 0.0 | 0.00 | 0.14 | 0.00 | 91 | 1026.7 |
| 20260506114552 | 30 | 0 | 0.0 | 0.0 | 0.00 | 0.17 | 0.00 | 91 | 1026.3 |
| 20260506113054 | 30 | 0 | 0.0 | 0.0 | 0.00 | 0.17 | 0.00 | 91 | 1026.2 |
| 20260506111552 | 30 | 0 | 0.0 | 0.0 | 0.00 | 0.17 | 0.00 | 91 | 1026.4 |
| 20260506110058 | 30 | 0 | 0.0 | 0.0 | 0.00 | 0.17 | 0.00 | 91 | 1026.0 |
| 20260506104559 | 31 | 0 | 0.0 | 0.0 | 0.00 | 0.19 | 0.00 | 91 | 1026.0 |
| 20260506103058 | 31 | 0 | 0.0 | 0.0 | 0.00 | 0.19 | 0.00 | 91 | 1026.0 |
| 20260506101556 | 31 | 0 | 0.0 | 0.0 | 0.00 | 0.19 | 0.00 | 91 | 1026.1 |
| 20260506100054 | 31 | 0 | 0.0 | 0.0 | 0.00 | 0.19 | 0.00 | 91 | 1026.2 |
| 20260506094558 | 31 | 0 | 0.0 | 0.0 | 0.00 | 0.19 | 0.00 | 91 | 1026.2 |
| 20260506093052 | 31 | 0 | 0.0 | 0.0 | 0.00 | 0.19 | 0.00 | 91 | 1025.9 |
| 20260506091552 | 31 | 0 | 0.0 | 0.0 | 0.00 | 0.19 | 0.00 | 91 | 1026.0 |
| 20260506090055 | 31 | 0 | 0.0 | 0.0 | 0.00 | 0.19 | 0.00 | 91 | 1025.8 |
| 20260506084609 | 31 | 0 | 0.0 | 0.0 | 0.00 | 0.19 | 0.00 | 91 | 1025.8 |
| 20260506083054 | 31 | 0 | 0.0 | 0.0 | 0.00 | 0.19 | 0.00 | 91 | 1025.8 |
| 20260506081556 | 31 | 0 | 0.0 | 0.0 | 0.00 | 0.19 | 0.00 | 91 | 1025.9 |
| 20260506073059 | 32 | 0 | 0.0 | 0.0 | 0.00 | 0.19 | 0.00 | 91 | 1025.9 |
| 20260506071554 | 32 | 0 | 0.0 | 0.0 | 0.00 | 0.19 | 0.00 | 91 | 1025.9 |
| 20260506061558 | 32 | 0 | 0.0 | 1.0 | 0.00 | 0.19 | 0.00 | 91 | 1025.5 |
| 20260506050105 | 32 | 0 | 0.0 | 0.0 | 0.00 | 0.19 | 0.19 | 90 | 1025.3 |
| 20260506044554 | 32 | 0 | 0.0 | 0.0 | 0.00 | 0.20 | 0.19 | 90 | 1025.0 |
| 20260506043100 | 32 | 0 | 0.0 | 0.0 | 0.00 | 0.20 | 0.19 | 90 | 1025.2 |
| 20260506041553 | 32 | 0 | 0.0 | 1.0 | 0.00 | 0.20 | 0.19 | 90 | 1025.2 |
| 20260506040056 | 32 | 0 | 0.0 | 0.0 | 0.00 | 0.20 | 0.19 | 90 | 1024.9 |
| 20260506034601 | 32 | 0 | 0.0 | 2.0 | 0.00 | 0.37 | 0.19 | 90 | 1025.0 |
| 20260506033052 | 32 | 0 | 0.0 | 1.0 | 0.00 | 0.37 | 0.19 | 90 | 1024.8 |